Location: Ca�n Batista
(41.4099°N, 1.7752°E)
Time: 14:37:38
(UTC+00:00)

Okean 1-7 - Pass Details

Date: 03 March 2021
Orbit: 589 x 619 km, 82.5° (Epoch: 22 April)

Event Time Altitude Azimuth Distance (km) Brightness Sun altitude
Rises 19:35:58 0° 349° (N) 2,892 6.8 -21.3°
Reaches altitude 10° 19:38:13 10° 347° (NNW) 1,979 5.9 -21.7°
Maximum altitude 19:42:34 67° 265° (W) 662 3.3 -22.5°
Enters shadow 19:45:41 18° 185° (S) 1,492 4.9 -23.1°
